QPF
0.00 0.00 0.00 0.00 0.00 0.00 0.00 0.00 0.00 0.00 0.00 0.00 0.00 0.00 0.00 0.00 0.00 0.00 0.00 0.00 0.00 0.00 0.00 0.00 0.00 0.00 0.00 0.00 0.01 0.02 0.02 0.01 0.01 0.03 0.02 0.02 0.00 0.00 0.00 0.00 0.00 0.00 0.00
0.00 0.00 0.00 0.00 0.00 0.00 0.00 0.00 0.00 0.00 0.00 0.00 0.00 0.00 0.00 0.00 0.00 0.00 0.00 0.00 0.00 0.00 0.00 0.00 0.00 0.00 0.00 0.00 0.00 0.00 0.00 0.00 0.00 0.02 0.04 0.02 0.00 0.00 0.00 0.00 0.00 0.00 0.00
0.01 0.00 0.00 0.00 0.00 0.00 0.00 0.00 0.00 0.00 0.00 0.00 0.00 0.00 0.00 0.00 0.00 0.00 0.00 0.00 0.00 0.00 0.00 0.00 0.00 0.00 0.00 0.00 0.00 0.00 0.00 0.00 0.00 0.03 0.08 0.07 0.04 0.01 0.00 0.00 0.00 0.00 0.00
0.01 0.00 0.00 0.00 0.00 0.00 0.00 0.00 0.00 0.00 0.00 0.00 0.00 0.00 0.00 0.00 0.00 0.00 0.00 0.00 0.00 0.00 0.00 0.00 0.00 0.00 0.00 0.00 0.00 0.00 0.00 0.00 0.00 0.02 0.05 0.12 0.09 0.07 0.03 0.01 0.02 0.00 0.00
0.04 0.00 0.00 0.00 0.00 0.00 0.00 0.00 0.00 0.00 0.00 0.00 0.00 0.00 0.00 0.00 0.00 0.00 0.00 0.00 0.00 0.00 0.00 0.01 0.00 0.00 0.00 0.00 0.00 0.00 0.00 0.00 0.00 0.02 0.00 0.01 0.03 0.04 0.14 0.13 0.03 0.00 0.00
0.04 0.00 0.00 0.00 0.00 0.00 0.00 0.00 0.00 0.00 0.00 0.00 0.00 0.00 0.00 0.00 0.00 0.00 0.00 0.00 0.00 0.00 0.00 0.00 0.00 0.00 0.00 0.00 0.00 0.00 0.00 0.00 0.00 0.00 0.00 0.01 0.03 0.02 0.06 0.06 0.08 0.00 0.00
0.00 0.00 0.00 0.00 0.00 0.00 0.00 0.00 0.00 0.00 0.00 0.00 0.00 0.00 0.00 0.00 0.00 0.00 0.00 0.00 0.00 0.00 0.00 0.00 0.00 0.00 0.00 0.00 0.00 0.00 0.00 0.00 0.00 0.00 0.00 0.00 0.06 0.00 0.06 0.07 0.08 0.03 0.00
0.00 0.00 0.00 0.00 0.00 0.00 0.00 0.00 0.00 0.00 0.00 0.00 0.00 0.00 0.00 0.00 0.00 0.00 0.00 0.00 0.00 0.00 0.00 0.00 0.00 0.00 0.00 0.00 0.00 0.00 0.00 0.00 0.00 0.00 0.00 0.01 0.03 0.02 0.02 0.06 0.08 0.07 0.03
0.00 0.00 0.00 0.00 0.00 0.00 0.00 0.00 0.00 0.00 0.00 0.00 0.00 0.00 0.00 0.00 0.00 0.00 0.00 0.00 0.00 0.00 0.00 0.00 0.01 0.03 0.04 0.00 0.00 0.00 0.00 0.00 0.00 0.00 0.00 0.00 0.01 0.02 0.01 0.01 0.03 0.03 0.03
0.00 0.00 0.00 0.00 0.00 0.00 0.00 0.00 0.00 0.00 0.00 0.00 0.00 0.00 0.00 0.00 0.00 0.00 0.00 0.00 0.00 0.00 0.00 0.00 0.02 0.04 0.04 0.02 0.00 0.00 0.00 0.00 0.00 0.00 0.00 0.01 0.00 0.00 0.03 0.06 0.09 0.07 0.02
0.00 0.00 0.00 0.00 0.00 0.00 0.00 0.00 0.00 0.00 0.00 0.00 0.00 0.00 0.00 0.00 0.00 0.00 0.00 0.00 0.00 0.00 0.00 0.00 0.02 0.06 0.06 0.09 0.03 0.02 0.00 0.00 0.00 0.00 0.00 0.00 0.04 0.02 0.07 0.03 0.06 0.09 0.07
0.00 0.00 0.00 0.00 0.00 0.00 0.00 0.00 0.00 0.00 0.00 0.00 0.00 0.00 0.00 0.00 0.00 0.00 0.00 0.00 0.00 0.00 0.00 0.00 0.00 0.01 0.08 0.08 0.04 0.04 0.01 0.00 0.00 0.00 0.00 0.03 0.03 0.07 0.09 0.05 0.04 0.10 0.06
0.00 0.00 0.00 0.00 0.00 0.00 0.00 0.00 0.00 0.00 0.00 0.00 0.00 0.00 0.00 0.00 0.00 0.00 0.00 0.00 0.00 0.00 0.00 0.00 0.00 0.01 0.05 0.10 0.08 0.01 0.00 0.00 0.01 0.04 0.03 0.03 0.03 0.12 0.11 0.11 0.08 0.12 0.10
0.00 0.00 0.00 0.00 0.00 0.00 0.00 0.00 0.00 0.00 0.00 0.00 0.00 0.00 0.00 0.00 0.00 0.00 0.00 0.00 0.00 0.00 0.00 0.00 0.00 0.00 0.01 0.05 0.04 0.03 0.05 0.14 0.18 0.10 0.07 0.11 0.10 0.16 0.14 0.16 0.10 0.08 0.07
0.00 0.00 0.00 0.00 0.00 0.00 0.00 0.00 0.00 0.00 0.00 0.00 0.00 0.00 0.00 0.00 0.00 0.00 0.00 0.00 0.00 0.00 0.00 0.00 0.00 0.00 0.00 0.00 0.01 0.02 0.03 0.06 0.18 0.20 0.15 0.16 0.17 0.18 0.29 0.35 0.14 0.10 0.11
0.00 0.00 0.00 0.00 0.00 0.00 0.00 0.00 0.00 0.00 0.00 0.00 0.00 0.00 0.00 0.00 0.00 0.00 0.00 0.00 0.00 0.00 0.00 0.00 0.00 0.00 0.00 0.00 0.00 0.00 0.00 0.00 0.03 0.04 0.07 0.23 0.32 0.34 0.30 0.43 0.41 0.22 0.08
0.00 0.00 0.00 0.00 0.00 0.00 0.00 0.00 0.00 0.00 0.00 0.00 0.00 0.00 0.00 0.00 0.00 0.00 0.00 0.00 0.00 0.00 0.00 0.00 0.00 0.00 0.00 0.00 0.00 0.00 0.00 0.00 0.00 0.01 0.02 0.08 0.12 0.10 0.11 0.09 0.13 0.18 0.04
0.00 0.00 0.00 0.00 0.00 0.00 0.00 0.00 0.00 0.00 0.00 0.00 0.00 0.00 0.00 0.00 0.00 0.00 0.00 0.00 0.00 0.00 0.00 0.00 0.00 0.00 0.00 0.00 0.00 0.00 0.00 0.00 0.00 0.01 0.01 0.01 0.02 0.01 0.03 0.02 0.00 0.02 0.04
0.00 0.00 0.00 0.00 0.00 0.00 0.00 0.00 0.00 0.00 0.00 0.00 0.00 0.00 0.00 0.00 0.00 0.00 0.00 0.00 0.00 0.00 0.00 0.00 0.00 0.00 0.00 0.00 0.00 0.00 0.00 0.00 0.00 0.00 0.00 0.00 0.00 0.01 0.02 0.03 0.01 0.01 0.03
0.00 0.00 0.00 0.00 0.00 0.00 0.00 0.00 0.00 0.00 0.00 0.00 0.00 0.00 0.00 0.00 0.00 0.00 0.00 0.00 0.00 0.00 0.00 0.00 0.00 0.00 0.00 0.00 0.00 0.00 0.00 0.00 0.00 0.00 0.00 0.00 0.00 0.00 0.00 0.01 0.03 0.02 0.00
0.00 0.00 0.00 0.00 0.00 0.00 0.00 0.00 0.00 0.00 0.00 0.00 0.00 0.00 0.00 0.00 0.00 0.00 0.00 0.00 0.00 0.00 0.00 0.00 0.00 0.00 0.00 0.00 0.00 0.00 0.00 0.00 0.00 0.00 0.00 0.00 0.00 0.00 0.00 0.00 0.01 0.02 0.01
0.00 0.00 0.00 0.00 0.00 0.00 0.00 0.00 0.00 0.00 0.00 0.00 0.00 0.00 0.00 0.00 0.00 0.00 0.00 0.00 0.00 0.00 0.00 0.00 0.00 0.00 0.00 0.00 0.00 0.00 0.00 0.00 0.00 0.00 0.00 0.00 0.00 0.00 0.00 0.00 0.00 0.00 0.00
0.00 0.00 0.00 0.00 0.00 0.00 0.00 0.00 0.00 0.00 0.00 0.00 0.00 0.00 0.00 0.00 0.00 0.00 0.00 0.00 0.00 0.00 0.00 0.00 0.00 0.00 0.00 0.00 0.00 0.00 0.01 0.00 0.00 0.00 0.00 0.00 0.00 0.00 0.00 0.00 0.00 0.00 0.00
0.00 0.00 0.00 0.00 0.00 0.00 0.00 0.00 0.00 0.00 0.00 0.00 0.00 0.00 0.00 0.00 0.00 0.00 0.00 0.00 0.00 0.00 0.00 0.00 0.00 0.00 0.01 0.00 0.00 0.00 0.00 0.00 0.00 0.00 0.00 0.00 0.00 0.00 0.00 0.00 0.00 0.00 0.00
0.00 0.00 0.00 0.00 0.00 0.00 0.00 0.00 0.00 0.00 0.00 0.00 0.00 0.00 0.00 0.00 0.00 0.00 0.00 0.00 0.00 0.00 0.00 0.00 0.00 0.00 0.00 0.01 0.01 0.00 0.00 0.00 0.00 0.01 0.00 0.00 0.00 0.00 0.00 0.00 0.00 0.00 0.01
0.00 0.00 0.00 0.00 0.00 0.00 0.00 0.00 0.00 0.00 0.00 0.00 0.00 0.00 0.00 0.00 0.00 0.00 0.00 0.00 0.00 0.00 0.00 0.00 0.00 0.01 0.01 0.01 0.01 0.00 0.01 0.00 0.00 0.02 0.02 0.00 0.00 0.00 0.00 0.00 0.01 0.04 0.05
MSLP
1015.69 1015.52 1015.74 1015.17 1014.78 1014.48 1014.21 1014.25 1014.16 1014.13 1014.24 1014.12 1014.22 1014.32 1014.36 1014.43 1014.55 1014.62 1014.68 1014.75 1014.88 1015.03 1014.97 1014.93 1015.08 1015.21 1015.21 1015.28 1015.53 1015.66 1015.51 1015.49 1015.47 1015.39 1015.21 1015.18 1015.17 1015.32 1015.37 1015.46 1015.72 1015.97 1016.12
1015.45 1015.52 1016.15 1016.01 1015.25 1014.80 1014.60 1014.64 1014.49 1014.41 1014.54 1014.35 1014.45 1014.52 1014.57 1014.62 1014.74 1014.76 1014.69 1014.68 1014.77 1014.92 1015.09 1015.15 1015.16 1015.20 1015.40 1015.50 1015.53 1015.62 1015.57 1015.69 1015.65 1015.57 1015.42 1015.42 1015.44 1015.57 1015.63 1015.65 1015.73 1015.97 1016.19
1016.88 1016.54 1016.03 1016.61 1015.67 1015.26 1015.07 1014.91 1014.89 1014.89 1014.86 1014.67 1014.72 1014.74 1014.71 1014.79 1014.84 1014.87 1014.78 1014.74 1014.73 1014.81 1014.92 1015.08 1015.19 1015.18 1015.28 1015.41 1015.46 1015.62 1015.48 1015.55 1015.68 1015.74 1015.71 1015.84 1015.72 1015.71 1015.76 1015.91 1016.00 1016.15 1016.23
1017.34 1016.73 1016.42 1016.92 1016.19 1015.64 1015.32 1015.30 1015.22 1015.25 1015.09 1014.99 1014.98 1014.92 1014.74 1014.83 1014.85 1014.79 1014.83 1014.78 1014.78 1014.84 1014.84 1014.87 1014.90 1015.13 1015.26 1015.36 1015.52 1015.53 1015.40 1015.51 1015.51 1015.64 1015.88 1015.95 1015.89 1015.76 1015.72 1015.79 1016.11 1016.32 1016.29
1017.32 1017.15 1017.48 1016.94 1016.18 1015.77 1015.64 1015.48 1015.45 1015.38 1015.26 1015.18 1015.14 1014.97 1014.93 1014.85 1014.86 1014.81 1014.73 1014.75 1014.77 1014.74 1014.76 1014.73 1014.76 1014.86 1015.21 1015.41 1015.41 1015.63 1015.36 1015.44 1015.58 1015.60 1015.77 1015.82 1015.82 1015.77 1015.84 1015.92 1016.10 1016.31 1016.35
1017.77 1017.63 1017.54 1016.97 1016.38 1016.05 1015.83 1015.72 1015.73 1015.74 1015.55 1015.50 1015.34 1015.25 1015.22 1015.03 1014.87 1014.79 1014.73 1014.69 1014.72 1014.66 1014.59 1014.62 1014.68 1014.86 1015.02 1015.23 1015.60 1015.59 1015.62 1015.47 1015.34 1015.49 1015.88 1015.78 1015.73 1015.68 1015.87 1015.97 1016.13 1016.33 1016.46
1017.45 1017.64 1017.48 1017.19 1016.82 1016.49 1016.38 1016.24 1016.11 1016.03 1015.95 1015.76 1015.72 1015.68 1015.55 1015.38 1015.10 1014.86 1014.78 1014.72 1014.64 1014.50 1014.54 1014.53 1014.58 1014.73 1014.95 1015.13 1015.02 1015.21 1015.23 1015.37 1015.42 1015.46 1015.71 1015.71 1015.97 1015.79 1015.55 1015.68 1015.91 1016.13 1016.43
1017.75 1018.03 1017.94 1017.57 1017.23 1017.00 1016.77 1016.58 1016.46 1016.39 1016.31 1016.21 1016.23 1016.12 1015.97 1015.77 1015.45 1015.10 1014.94 1014.86 1014.70 1014.44 1014.41 1014.35 1014.47 1014.66 1014.93 1015.10 1015.06 1015.09 1015.20 1015.18 1015.27 1015.36 1015.61 1015.62 1015.47 1015.72 1015.59 1015.60 1015.68 1015.71 1016.18
1018.35 1018.38 1018.34 1018.13 1017.89 1017.57 1017.37 1017.16 1017.04 1016.89 1016.82 1016.76 1016.69 1016.59 1016.42 1016.13 1015.74 1015.45 1015.25 1015.06 1014.82 1014.51 1014.32 1014.26 1014.28 1014.42 1014.56 1014.64 1014.78 1014.98 1015.14 1015.22 1015.26 1015.04 1015.19 1015.29 1014.97 1015.08 1015.28 1015.49 1015.53 1015.55 1015.82
1018.87 1018.89 1018.85 1018.62 1018.38 1018.16 1017.96 1017.69 1017.52 1017.47 1017.42 1017.40 1017.23 1016.97 1016.77 1016.49 1016.25 1015.97 1015.79 1015.53 1015.17 1014.73 1014.36 1014.16 1014.12 1014.24 1014.30 1014.32 1014.33 1014.44 1014.56 1014.94 1015.05 1014.99 1014.70 1014.73 1014.53 1014.59 1014.79 1014.98 1015.36 1015.58 1015.60
1019.34 1019.38 1019.32 1019.19 1018.99 1018.76 1018.56 1018.51 1018.36 1018.20 1018.06 1018.00 1017.86 1017.58 1017.30 1017.14 1016.88 1016.64 1016.35 1015.94 1015.57 1015.12 1014.68 1014.35 1014.06 1013.95 1014.00 1014.00 1013.97 1013.99 1014.16 1014.29 1014.57 1014.73 1014.65 1014.21 1014.06 1013.91 1014.09 1014.33 1014.85 1015.14 1015.39
1019.96 1019.96 1019.86 1019.70 1019.57 1019.34 1019.03 1019.05 1018.86 1018.70 1018.60 1018.56 1018.40 1018.22 1017.94 1017.75 1017.45 1017.16 1016.81 1016.45 1016.04 1015.60 1015.14 1014.70 1014.25 1013.83 1013.71 1013.63 1013.55 1013.50 1013.60 1013.73 1013.97 1014.08 1014.12 1013.92 1013.46 1013.49 1013.44 1013.64 1014.09 1014.49 1014.87
1020.42 1020.38 1020.30 1020.19 1020.14 1020.03 1019.83 1019.65 1019.43 1019.21 1019.07 1018.97 1018.82 1018.66 1018.39 1018.20 1017.92 1017.55 1017.26 1016.95 1016.62 1016.17 1015.86 1015.42 1014.97 1014.48 1013.94 1013.77 1013.50 1013.21 1013.11 1013.08 1013.22 1013.42 1013.22 1013.45 1013.49 1013.16 1013.18 1013.51 1013.67 1014.06 1014.47
1020.64 1020.78 1020.78 1020.67 1020.59 1020.44 1020.20 1019.98 1019.79 1019.59 1019.41 1019.25 1019.08 1018.83 1018.69 1018.65 1018.41 1018.17 1017.82 1017.45 1017.10 1016.74 1016.38 1016.07 1015.66 1015.18 1014.65 1014.13 1013.62 1013.38 1013.00 1012.67 1012.51 1012.76 1012.71 1012.97 1013.41 1013.32 1013.09 1012.66 1013.01 1013.39 1013.75
1021.04 1021.26 1021.30 1021.17 1021.08 1020.82 1020.56 1020.41 1020.20 1020.05 1019.89 1019.75 1019.50 1019.26 1019.00 1018.99 1018.81 1018.47 1018.17 1017.82 1017.58 1017.23 1016.91 1016.32 1015.83 1015.35 1014.94 1014.36 1013.75 1013.29 1012.95 1012.55 1012.21 1011.90 1012.01 1012.28 1012.40 1011.97 1011.88 1013.18 1013.10 1012.50 1013.10
1021.31 1021.48 1021.55 1021.50 1021.41 1021.22 1021.12 1020.96 1020.88 1020.64 1020.49 1020.24 1020.03 1019.92 1019.61 1019.35 1019.19 1018.88 1018.52 1018.17 1017.93 1017.62 1017.26 1016.84 1016.26 1015.64 1015.02 1014.48 1013.85 1013.22 1012.90 1012.47 1012.18 1011.82 1011.64 1011.87 1011.43 1011.15 1010.71 1012.25 1012.38 1012.53 1012.91
1021.34 1021.42 1021.52 1021.53 1021.66 1021.58 1021.50 1021.34 1021.19 1021.13 1020.93 1020.80 1020.70 1020.67 1020.45 1020.31 1020.15 1019.75 1019.26 1018.82 1018.54 1018.12 1017.60 1017.01 1016.49 1015.87 1015.25 1014.55 1013.85 1013.37 1012.77 1012.27 1011.98 1011.67 1011.73 1011.61 1011.32 1010.82 1010.39 1010.45 1011.12 1011.47 1012.09
1021.39 1021.72 1021.80 1021.77 1022.00 1021.96 1021.88 1021.79 1021.69 1021.58 1021.37 1021.25 1021.26 1021.22 1021.26 1021.15 1020.91 1020.55 1020.02 1019.52 1019.07 1018.51 1018.00 1017.51 1016.94 1016.45 1015.95 1015.13 1014.14 1013.23 1012.77 1012.24 1011.77 1011.35 1011.09 1011.10 1011.11 1010.80 1010.70 1010.76 1010.89 1010.97 1011.51
1021.88 1022.11 1022.23 1022.28 1022.32 1022.35 1022.25 1022.11 1022.02 1021.89 1021.84 1021.88 1021.81 1021.81 1021.79 1021.58 1021.27 1020.96 1020.45 1020.05 1019.47 1018.85 1018.35 1017.91 1017.36 1016.95 1016.24 1015.47 1014.53 1013.35 1012.54 1012.16 1011.65 1011.19 1011.01 1010.82 1010.70 1010.58 1010.34 1010.70 1010.81 1011.06 1011.14
1021.79 1022.04 1022.21 1022.38 1022.44 1022.24 1022.15 1022.00 1022.05 1022.06 1022.10 1022.15 1022.11 1022.15 1022.06 1021.77 1021.49 1021.20 1020.76 1020.30 1019.71 1019.13 1018.54 1018.09 1017.51 1016.96 1016.45 1015.60 1014.63 1013.60 1012.42 1011.53 1011.18 1010.83 1010.49 1010.09 1010.12 1010.21 1010.28 1010.38 1010.63 1010.85 1010.78
1021.67 1021.99 1022.21 1022.42 1022.44 1022.25 1022.19 1022.27 1022.29 1022.62 1022.69 1022.67 1022.53 1022.39 1022.19 1021.89 1021.59 1021.29 1020.94 1020.45 1019.92 1019.40 1018.73 1018.09 1017.57 1016.86 1016.15 1015.67 1014.66 1012.90 1011.96 1010.97 1010.10 1009.86 1009.73 1009.63 1009.58 1009.59 1009.75 1009.88 1009.88 1009.91 1009.83
1021.98 1022.23 1022.42 1022.70 1022.76 1022.74 1022.70 1022.89 1023.05 1023.09 1023.08 1023.15 1022.92 1022.63 1022.23 1021.93 1021.84 1021.45 1021.06 1020.55 1020.02 1019.46 1018.82 1018.23 1017.64 1016.94 1016.12 1015.57 1014.84 1013.77 1011.81 1010.15 1009.42 1008.55 1008.51 1008.79 1008.84 1008.91 1008.97 1008.93 1008.99 1009.20 1009.31
1021.91 1022.17 1022.52 1022.93 1022.93 1022.89 1023.09 1023.33 1023.44 1023.39 1023.34 1023.38 1023.29 1023.08 1022.83 1022.57 1022.23 1021.87 1021.27 1020.79 1020.09 1019.49 1018.95 1018.26 1017.66 1017.05 1016.13 1015.43 1014.91 1014.22 1012.63 1011.04 1010.33 1008.42 1008.08 1008.08 1008.25 1008.52 1008.50 1008.36 1008.34 1008.46 1008.69
1021.98 1022.24 1022.57 1022.98 1023.07 1023.20 1023.22 1023.48 1023.90 1024.22 1024.25 1024.26 1024.06 1023.80 1023.31 1022.82 1022.51 1021.96 1021.47 1020.91 1020.12 1019.61 1018.91 1018.25 1017.53 1017.16 1016.42 1015.47 1014.78 1014.17 1013.56 1012.78 1011.58 1010.03 1008.61 1008.24 1007.97 1008.13 1008.18 1008.08 1007.97 1007.98 1008.02
1022.11 1022.43 1022.77 1023.12 1023.27 1023.47 1023.63 1023.92 1024.22 1024.43 1024.56 1024.63 1024.55 1024.21 1023.80 1023.15 1022.89 1022.20 1021.48 1021.04 1020.46 1019.70 1018.95 1018.23 1017.58 1016.96 1016.22 1015.54 1014.89 1014.10 1013.39 1012.84 1012.37 1011.48 1010.20 1008.80 1008.46 1008.37 1008.32 1008.27 1008.07 1007.85 1007.63
1022.17 1022.49 1023.15 1023.27 1023.54 1023.71 1023.86 1024.13 1024.45 1024.78 1024.87 1024.72 1024.60 1024.42 1023.85 1023.29 1022.80 1022.20 1021.63 1021.22 1020.55 1019.85 1018.92 1018.17 1017.50 1016.60 1015.79 1015.18 1014.53 1013.89 1013.38 1012.76 1011.80 1011.50 1010.68 1009.89 1009.35 1008.99 1008.86 1008.60 1008.40 1008.15 1007.92
Thickness
5727 5737 5737 5742 5743 5744 5747 5745 5746 5745 5743 5743 5741 5739 5737 5735 5733 5732 5731 5730 5728 5725 5724 5722 5719 5716 5714 5712 5709 5706 5707 5706 5705 5705 5707 5707 5705 5702 5701 5698 5695 5691 5688
5731 5734 5731 5731 5736 5740 5741 5740 5741 5741 5739 5739 5737 5735 5733 5732 5730 5729 5728 5728 5726 5723 5720 5719 5716 5714 5711 5708 5707 5705 5705 5702 5702 5701 5704 5702 5700 5697 5696 5695 5694 5690 5686
5709 5720 5728 5724 5731 5734 5735 5736 5735 5735 5734 5734 5732 5730 5729 5727 5726 5725 5725 5724 5723 5720 5718 5717 5715 5713 5710 5707 5705 5702 5702 5701 5699 5697 5699 5697 5696 5694 5692 5691 5690 5687 5685
5703 5712 5719 5717 5722 5727 5730 5730 5730 5729 5729 5728 5726 5725 5725 5723 5722 5722 5721 5720 5719 5717 5715 5714 5714 5712 5709 5706 5702 5700 5699 5697 5698 5695 5695 5694 5693 5692 5689 5689 5687 5685 5685
5705 5706 5704 5712 5718 5721 5723 5724 5724 5724 5724 5723 5721 5721 5720 5720 5718 5718 5718 5716 5715 5714 5713 5713 5711 5710 5706 5703 5700 5697 5697 5694 5693 5692 5692 5691 5691 5689 5686 5686 5684 5683 5683
5699 5701 5703 5708 5712 5715 5718 5718 5717 5716 5717 5716 5716 5715 5714 5715 5715 5715 5713 5713 5712 5712 5711 5710 5709 5705 5702 5699 5695 5693 5692 5690 5692 5690 5687 5688 5686 5687 5685 5684 5682 5679 5680
5703 5699 5700 5702 5704 5707 5708 5709 5710 5709 5709 5709 5708 5707 5707 5707 5709 5710 5709 5707 5707 5709 5707 5707 5705 5702 5697 5695 5694 5692 5692 5689 5688 5688 5685 5685 5684 5684 5685 5684 5682 5679 5677
5699 5694 5694 5696 5697 5699 5700 5701 5702 5701 5701 5701 5699 5699 5699 5700 5702 5703 5702 5702 5702 5705 5704 5704 5701 5697 5693 5690 5690 5688 5685 5685 5682 5685 5681 5682 5683 5681 5681 5680 5679 5680 5677
5691 5690 5689 5689 5689 5691 5692 5692 5692 5692 5691 5691 5691 5690 5691 5693 5694 5695 5694 5695 5697 5699 5700 5700 5697 5694 5690 5689 5687 5684 5680 5679 5678 5682 5680 5680 5682 5681 5679 5677 5677 5677 5676
5681 5681 5680 5681 5682 5683 5683 5683 5683 5683 5682 5681 5681 5683 5683 5684 5685 5685 5686 5686 5688 5692 5694 5695 5694 5691 5688 5687 5685 5684 5681 5676 5673 5674 5679 5679 5679 5680 5678 5676 5673 5671 5673
5673 5672 5672 5672 5672 5673 5672 5672 5672 5671 5672 5670 5670 5672 5673 5673 5674 5674 5675 5678 5679 5682 5685 5687 5688 5688 5686 5684 5683 5682 5680 5677 5671 5669 5670 5677 5678 5679 5678 5675 5670 5668 5666
5664 5664 5664 5664 5664 5664 5664 5664 5664 5663 5663 5662 5660 5660 5661 5662 5663 5664 5665 5667 5669 5671 5674 5677 5678 5680 5681 5681 5681 5680 5679 5676 5672 5668 5666 5669 5677 5674 5676 5675 5672 5668 5666
5656 5655 5656 5656 5655 5654 5654 5653 5653 5652 5652 5651 5650 5650 5651 5651 5652 5654 5655 5656 5657 5659 5661 5663 5666 5667 5670 5671 5672 5675 5674 5674 5671 5666 5665 5663 5664 5668 5667 5666 5666 5664 5661
5650 5648 5647 5647 5645 5645 5645 5645 5644 5642 5642 5641 5641 5642 5642 5641 5641 5641 5643 5644 5645 5647 5649 5650 5652 5654 5656 5657 5660 5663 5666 5668 5668 5665 5666 5660 5656 5658 5659 5664 5662 5658 5657
5642 5639 5637 5637 5636 5636 5636 5635 5634 5633 5632 5631 5631 5631 5631 5630 5629 5629 5629 5630 5630 5631 5633 5636 5640 5643 5644 5647 5649 5652 5654 5658 5661 5663 5662 5657 5658 5663 5664 5652 5648 5660 5655
5635 5632 5629 5627 5626 5625 5623 5623 5621 5621 5619 5619 5617 5616 5616 5615 5614 5614 5614 5614 5615 5615 5615 5618 5622 5628 5633 5635 5638 5639 5643 5646 5648 5652 5655 5652 5658 5663 5671 5645 5637 5647 5644
5628 5625 5622 5619 5617 5615 5613 5612 5610 5608 5606 5604 5601 5599 5598 5596 5594 5594 5595 5596 5595 5595 5597 5600 5603 5609 5616 5621 5624 5627 5630 5632 5636 5639 5640 5644 5646 5655 5661 5666 5655 5656 5646
5620 5615 5611 5609 5606 5604 5602 5599 5597 5595 5593 5589 5585 5582 5578 5576 5575 5574 5575 5576 5575 5576 5577 5578 5581 5584 5589 5597 5606 5611 5613 5619 5623 5627 5631 5635 5637 5642 5646 5650 5651 5654 5647
5608 5604 5601 5599 5596 5593 5590 5587 5584 5581 5577 5572 5568 5564 5560 5557 5555 5554 5555 5555 5555 5555 5554 5553 5556 5558 5563 5569 5579 5591 5598 5600 5608 5614 5618 5620 5626 5630 5639 5640 5643 5640 5641
5601 5596 5592 5588 5585 5583 5580 5576 5571 5566 5560 5554 5550 5545 5540 5536 5532 5529 5528 5528 5529 5529 5529 5527 5528 5530 5535 5544 5553 5565 5577 5587 5593 5599 5607 5614 5618 5622 5628 5631 5630 5632 5638
5596 5590 5585 5580 5576 5573 5568 5562 5556 5548 5542 5536 5531 5527 5522 5518 5513 5508 5504 5501 5498 5498 5498 5500 5500 5503 5508 5513 5525 5545 5558 5570 5582 5592 5595 5601 5606 5611 5615 5620 5624 5628 5634
5583 5578 5574 5567 5562 5557 5552 5544 5537 5531 5525 5518 5513 5508 5503 5497 5488 5481 5473 5468 5465 5466 5467 5468 5469 5474 5480 5486 5494 5512 5536 5555 5566 5584 5592 5592 5595 5602 5609 5614 5619 5622 5626
5573 5569 5563 5553 5548 5544 5536 5528 5520 5513 5506 5499 5492 5485 5479 5472 5464 5456 5449 5441 5440 5444 5444 5446 5448 5451 5459 5463 5468 5480 5506 5529 5539 5563 5577 5584 5584 5586 5598 5607 5613 5617 5618
5559 5556 5550 5540 5535 5529 5521 5513 5503 5493 5485 5478 5471 5462 5455 5448 5440 5436 5428 5421 5419 5418 5424 5428 5432 5434 5439 5447 5450 5458 5469 5487 5510 5530 5550 5563 5571 5575 5582 5595 5604 5608 5611
5544 5541 5533 5525 5520 5513 5506 5497 5487 5478 5470 5460 5450 5442 5435 5429 5422 5419 5410 5403 5398 5398 5407 5414 5417 5421 5426 5431 5435 5441 5452 5464 5480 5499 5519 5540 5549 5559 5567 5577 5587 5595 5601
5533 5528 5519 5513 5506 5499 5491 5483 5473 5463 5454 5446 5437 5429 5424 5419 5412 5404 5394 5389 5387 5390 5398 5403 5406 5411 5417 5421 5426 5431 5437 5448 5468 5477 5500 5513 5527 5538 5547 5556 5566 5575 5583